This demonstration page uses our WeatherBlox Daily Observations layout. Learn more.

Left ArrowRight Arrow

Hourly Observations for May 31, 2022

Temp ( °F °C ) Dew Point ( °F °C ) Humidity (%) Winds ( mph kmh ) Pressure ( in mb ) Visibility ( mi km ) Precip ( " mm )
12:52 am 00:52 Mostly Cloudy 67 19.4 45 7.2 45 45 ESE 3 6 29.70 1006 10 16 0.00 0.00
1:52 am 01:52 Mostly Cloudy 66 18.9 48 8.9 52 52 SSE 10 17 29.74 1007 10 16 0.00 0.00
2:52 am 02:52 Mostly Cloudy 64 17.8 52 11.1 65 65 S 9 15 29.74 1007 10 16 0.00 0.00
3:52 am 03:52 Mostly Cloudy 63 17.2 53 11.7 70 70 SSW 3 6 29.75 1007 10 16 0.00 0.00
4:52 am 04:52 Mostly Cloudy 64 17.8 46 7.8 52 52 W 3 6 29.77 1008 10 16 0.00 0.00
5:52 am 05:52 Mostly Cloudy 59 15 48 8.9 67 67 WNW 6 9 29.80 1009 10 16 0.00 0.00
6:52 am 06:52 Partly Cloudy 62 16.7 47 8.3 58 58 W 6 9 29.81 1010 10 16 0.00 0.00
7:52 am 07:52 Mostly Cloudy 64 17.8 48 8.9 56 56 SW 8 13 29.85 1011 10 16 0.00 0.00
8:52 am 08:52 Mostly Cloudy 65 18.3 49 9.4 56 56 W 8 13 29.80 1009 10 16 0.00 0.00
9:52 am 09:52 Mostly Cloudy 66 18.9 51 10.6 59 59 W 9 15 29.82 1010 10 16 0.00 0.00
10:52 am 10:52 Mostly Cloudy 69 20.6 53 11.7 57 57 W 12 19 29.85 1011 10 16 0.00 0.00
11:52 am 11:52 Mostly Cloudy 71 21.7 54 12.2 55 55 W 8 13 29.87 1012 10 16 0.00 0.00
12:52 pm 12:52 Mostly Cloudy 74 23.3 54 12.2 50 50 W 8 13 29.88 1012 10 16 0.00 0.00
1:52 pm 13:52 Partly Cloudy 75 23.9 55 12.8 50 50 NW 10 17 29.89 1012 10 16 0.00 0.00
2:52 pm 14:52 Partly Cloudy 76 24.4 55 12.8 48 48 WNW 8 13 29.89 1012 10 16 0.00 0.00
3:52 pm 15:52 Partly Cloudy 78 25.6 54 12.2 43 43 NW 14 22 29.89 1012 10 16 0.00 0.00
4:52 pm 16:52 Partly Cloudy 79 26.1 53 11.7 41 41 NW 13 20 29.89 1012 10 16 0.00 0.00
5:52 pm 17:52 Partly Cloudy 78 25.6 53 11.7 42 42 NNW 14 22 29.90 1013 10 16 0.00 0.00
6:52 pm 18:52 Partly Cloudy 76 24.4 55 12.8 48 48 NNW 14 22 29.91 1013 10 16 0.00 0.00
7:52 pm 19:52 Mostly Cloudy 74 23.3 54 12.2 50 50 NNW 14 22 29.93 1014 10 16 0.00 0.00
8:52 pm 20:52 Partly Cloudy 69 20.6 53 11.7 57 57 N 10 17 29.97 1015 10 16 0.00 0.00
9:52 pm 21:52 Partly Cloudy 67 19.4 53 11.7 61 61 N 10 17 30.00 1016 10 16 0.00 0.00
10:52 pm 22:52 Partly Cloudy 65 18.3 52 11.1 63 63 NNW 21 33 30.03 1017 10 16 0.00 0.00
11:52 pm 23:52 Mostly Clear 62 16.7 49 9.4 62 62 N 18 30 30.04 1017 10 16 0.00 0.00

Powered by AerisWeather